Vorticity
17 19 19 18 16 16 22 16 10 11 18 12 17 15 17 17 13 10 13 13 13 10 9 8 10 8 9 12 9 8 9 12 14 13 7 8 12 15 8 7 5 9 2
14 17 20 20 21 18 16 13 19 17 5 9 11 8 15 20 18 14 12 12 14 10 9 8 7 9 9 7 8 10 8 5 5 8 21 12 5 9 12 12 10 5 8
12 13 12 12 12 12 13 12 17 20 16 20 20 12 8 6 10 16 28 6 13 9 10 11 9 9 7 6 6 6 9 7 4 2 17 18 11 6 9 10 11 11 7
13 10 8 11 11 9 8 8 9 11 12 12 13 14 16 18 14 9 9 15 32 23 7 10 12 10 7 7 8 7 6 8 6 5 14 16 13 14 16 12 17 18 17
9 8 11 7 5 7 7 7 8 8 8 9 10 10 10 11 11 13 15 12 10 10 16 19 11 10 9 9 8 7 5 8 7 1 11 11 5 4 5 2 4 9 12
7 11 8 6 6 6 5 6 8 7 10 11 9 7 9 11 11 9 9 10 12 11 10 9 9 10 9 9 8 8 6 7 8 7 7 9 8 12 10 9 5 9 15
10 9 6 2 4 8 7 11 13 15 16 19 18 18 12 12 10 12 13 10 10 9 8 9 11 11 8 7 8 8 7 9 10 10 10 9 10 10 9 8 7 8 17
10 7 4 2 3 9 11 14 20 24 19 16 20 21 20 18 18 17 15 13 16 10 11 12 10 9 8 10 11 10 10 11 11 12 11 13 14 20 26 11 7 12 12
8 5 4 6 5 8 13 19 22 15 24 20 16 15 17 17 18 18 20 21 20 21 19 12 14 14 12 14 7 6 9 11 8 11 29 26 33 45 19 15 24 22 18
2 2 5 7 8 12 19 19 19 27 14 4 17 16 23 22 25 20 17 21 25 24 26 25 19 14 16 14 16 10 3 9 16 16 27 32 21 22 42 24 29 2 13
4 8 9 10 17 20 22 18 25 9 11 13 7 27 19 26 21 15 26 17 12 11 21 23 22 24 27 25 31 22 23 12 24 16 20 10 8 1 -8 -17 14 -6 12
9 7 8 19 22 22 16 26 8 7 28 41 30 16 18 18 15 15 15 6 3 22 35 39 36 36 31 26 20 15 11 25 14 10 14 18 -1 5 7 22 6 14 8
8 10 19 24 19 17 27 9 15 37 24 13 11 22 23 21 11 5 5 25 49 27 19 16 10 16 16 18 28 1 24 7 -1 26 -16 28 3 3 18 30 15 22 13
16 21 25 23 19 21 15 10 26 15 10 21 23 24 21 38 39 39 40 20 13 12 8 15 10 19 18 17 21 -0 -4 11 8 9 24 16 3 9 14 3 12 2 18
22 24 26 20 16 22 4 24 14 9 24 26 3 23 28 23 23 16 17 13 -3 26 13 -0 14 18 12 11 12 18 33 20 15 10 18 33 15 4 8 -3 22 15 6
24 25 24 19 17 15 6 16 18 11 27 1 15 10 17 12 10 14 2 10 27 18 -9 19 6 13 17 27 24 23 19 14 -9 8 2 5 -1 12 5 21 10 5 7
24 24 23 18 20 9 9 14 9 28 30 -1 17 13 9 17 18 12 18 21 12 13 -4 0 8 6 14 20 10 10 7 3 10 11 9 7 8 23 21 4 5 5 1
22 25 25 17 16 8 11 13 11 20 15 -5 21 10 16 17 12 23 12 12 9 10 17 7 4 6 2 6 7 5 10 9 6 1 7 9 18 14 9 6 7 2 19
24 27 25 15 13 10 9 14 9 25 12 2 15 14 15 15 19 18 7 14 3 9 -3 3 6 26 3 7 4 11 8 7 3 2 3 15 12 6 5 10 21 14 7
24 31 19 13 11 12 11 13 8 25 9 12 10 15 12 16 16 5 16 17 9 3 1 7 21 2 10 15 4 5 6 6 4 9 18 12 5 11 20 11 8 11 13
26 23 18 15 11 11 11 15 10 26 7 16 9 14 11 16 13 16 12 14 18 20 21 15 9 20 18 11 6 6 4 10 16 14 10 2 18 12 10 13 12 13 12
20 16 22 13 13 11 9 17 14 29 4 16 8 14 10 15 14 14 22 13 20 5 17 11 9 -1 7 7 5 3 13 9 4 7 14 15 8 12 11 12 13 9 7
19 21 14 12 13 14 9 17 17 33 4 16 9 10 14 12 13 15 15 15 14 12 10 10 8 10 11 4 3 10 5 14 21 15 10 12 14 11 11 10 7 7 7
17 17 12 10 11 18 9 17 19 35 4 13 11 8 10 15 7 11 8 6 6 7 10 11 12 11 11 9 8 12 13 10 10 13 14 13 11 9 9 8 9 7 7
17 15 15 8 7 16 11 14 20 33 6 10 15 9 4 16 16 7 7 5 8 7 8 9 6 7 12 13 12 8 10 13 15 14 11 8 11 10 10 9 7 8 8
19 18 14 12 12 10 15 11 20 25 11 7 19 10 8 13 13 14 13 11 9 6 7 7 8 10 10 10 13 16 15 12 11 10 12 11 10 10 9 7 8 7 9
Height
5534 5528 5523 5518 5515 5512 5509 5508 5508 5509 5509 5510 5512 5514 5515 5517 5519 5523 5528 5533 5539 5544 5550 5556 5562 5568 5575 5581 5586 5591 5597 5603 5609 5612 5618 5619 5624 5627 5631 5634 5639 5643 5646
5526 5520 5515 5511 5507 5503 5501 5499 5498 5499 5500 5500 5501 5502 5504 5506 5507 5510 5514 5518 5524 5531 5537 5544 5550 5556 5562 5568 5573 5579 5585 5590 5595 5600 5605 5608 5612 5616 5619 5622 5625 5629 5633
5518 5513 5509 5504 5500 5497 5494 5491 5489 5489 5490 5489 5490 5491 5492 5494 5497 5498 5501 5506 5510 5517 5523 5530 5536 5542 5549 5555 5561 5566 5571 5576 5581 5586 5593 5596 5599 5603 5607 5609 5612 5616 5620
5510 5506 5502 5498 5494 5490 5487 5485 5482 5481 5480 5480 5479 5479 5480 5481 5483 5486 5489 5493 5497 5503 5509 5515 5522 5529 5535 5541 5547 5552 5557 5562 5567 5573 5580 5583 5587 5591 5594 5597 5599 5602 5607
5503 5499 5495 5491 5487 5483 5479 5476 5473 5471 5469 5468 5468 5468 5469 5470 5471 5472 5475 5480 5485 5490 5495 5502 5508 5515 5520 5527 5533 5539 5543 5549 5556 5561 5568 5571 5575 5580 5583 5584 5587 5591 5594
5495 5491 5487 5483 5478 5474 5469 5465 5461 5458 5456 5454 5453 5453 5454 5455 5457 5459 5462 5466 5470 5476 5482 5488 5494 5500 5506 5513 5520 5525 5530 5535 5543 5549 5554 5558 5562 5567 5571 5573 5576 5579 5584
5487 5482 5478 5473 5468 5462 5457 5452 5447 5443 5440 5438 5436 5436 5437 5438 5440 5443 5446 5451 5456 5462 5468 5473 5479 5486 5492 5499 5506 5511 5517 5522 5529 5535 5540 5545 5549 5554 5557 5562 5564 5568 5572
5478 5473 5468 5462 5457 5450 5444 5437 5432 5427 5423 5421 5419 5418 5420 5421 5422 5426 5429 5434 5440 5446 5452 5457 5464 5472 5479 5485 5491 5498 5504 5510 5517 5522 5527 5530 5534 5538 5545 5549 5553 5558 5561
5469 5463 5457 5451 5445 5438 5431 5423 5417 5413 5409 5407 5405 5405 5405 5405 5407 5410 5413 5418 5424 5429 5434 5441 5448 5456 5464 5470 5478 5486 5492 5499 5505 5508 5512 5515 5520 5526 5533 5539 5543 5547 5551
5459 5452 5445 5438 5431 5424 5416 5410 5404 5399 5397 5395 5393 5391 5390 5391 5392 5396 5400 5405 5410 5415 5419 5425 5433 5442 5447 5456 5465 5473 5482 5489 5493 5497 5502 5506 5511 5517 5524 5528 5534 5538 5542
5447 5440 5432 5423 5416 5409 5403 5396 5391 5388 5385 5382 5381 5378 5378 5379 5382 5386 5389 5395 5400 5404 5408 5413 5420 5427 5434 5443 5453 5463 5472 5478 5483 5489 5494 5501 5507 5513 5519 5524 5528 5531 5534
5435 5427 5418 5410 5402 5396 5391 5385 5381 5377 5372 5369 5369 5369 5370 5371 5374 5378 5382 5387 5391 5394 5398 5404 5410 5417 5426 5435 5445 5455 5463 5471 5477 5484 5489 5495 5502 5508 5513 5517 5520 5524 5527
5421 5413 5404 5396 5390 5385 5380 5377 5371 5366 5363 5362 5362 5362 5362 5363 5367 5371 5375 5379 5382 5388 5395 5402 5409 5417 5424 5432 5441 5450 5458 5464 5473 5478 5483 5489 5497 5502 5506 5510 5514 5517 5521
5406 5398 5390 5384 5379 5375 5372 5369 5365 5362 5360 5359 5357 5357 5357 5357 5360 5365 5370 5376 5382 5389 5396 5403 5410 5417 5424 5431 5439 5448 5454 5462 5469 5475 5480 5485 5491 5497 5501 5505 5508 5511 5514
5389 5383 5378 5373 5370 5368 5366 5363 5361 5358 5357 5356 5356 5357 5357 5358 5361 5366 5372 5378 5384 5390 5397 5404 5411 5417 5424 5430 5437 5443 5451 5459 5466 5472 5476 5481 5487 5493 5496 5499 5503 5506 5509
5376 5371 5367 5364 5362 5362 5361 5358 5357 5356 5355 5355 5357 5358 5359 5362 5365 5369 5374 5379 5385 5392 5398 5404 5411 5417 5423 5428 5435 5443 5450 5457 5464 5469 5474 5479 5483 5487 5491 5494 5498 5501 5503
5363 5360 5358 5356 5356 5356 5356 5355 5354 5354 5354 5355 5357 5358 5360 5363 5366 5370 5375 5380 5386 5393 5400 5406 5411 5418 5424 5430 5436 5443 5449 5455 5461 5466 5471 5475 5479 5482 5485 5489 5492 5495 5497
5353 5350 5350 5349 5350 5351 5352 5351 5351 5352 5353 5355 5356 5358 5361 5363 5367 5371 5377 5382 5388 5395 5401 5406 5412 5418 5424 5431 5437 5443 5448 5454 5459 5464 5468 5471 5475 5478 5481 5484 5487 5489 5492
5343 5342 5342 5343 5345 5347 5347 5348 5349 5350 5352 5354 5356 5358 5361 5365 5368 5373 5378 5384 5390 5396 5402 5407 5412 5417 5424 5430 5436 5442 5447 5452 5457 5461 5464 5468 5471 5474 5477 5479 5482 5484 5486
5336 5335 5337 5338 5340 5343 5344 5345 5346 5348 5351 5353 5356 5358 5361 5365 5369 5374 5379 5385 5390 5396 5401 5407 5412 5417 5423 5429 5435 5440 5445 5449 5453 5457 5460 5463 5467 5470 5472 5475 5477 5479 5481
5332 5332 5334 5335 5337 5339 5341 5342 5343 5346 5349 5352 5355 5358 5361 5365 5369 5374 5378 5384 5389 5394 5400 5405 5412 5417 5422 5428 5433 5438 5442 5446 5450 5453 5456 5460 5462 5465 5468 5470 5473 5475 5477
5331 5331 5332 5334 5335 5337 5338 5339 5341 5344 5348 5351 5354 5358 5362 5365 5369 5373 5377 5382 5388 5394 5399 5405 5411 5417 5422 5426 5431 5435 5439 5443 5446 5449 5453 5455 5458 5461 5464 5466 5469 5471 5473
5331 5331 5331 5333 5334 5335 5336 5337 5339 5342 5346 5349 5353 5358 5361 5365 5369 5373 5376 5382 5387 5393 5398 5404 5409 5414 5419 5424 5429 5433 5436 5439 5442 5446 5449 5452 5455 5457 5460 5463 5465 5467 5469
5331 5331 5331 5332 5333 5334 5335 5336 5337 5340 5344 5348 5352 5357 5361 5365 5369 5374 5378 5381 5387 5392 5398 5403 5408 5413 5417 5422 5426 5429 5433 5436 5439 5442 5445 5448 5451 5454 5456 5459 5461 5462 5464
5332 5331 5331 5331 5332 5333 5334 5335 5336 5338 5342 5346 5351 5355 5360 5364 5368 5373 5377 5382 5386 5391 5396 5401 5406 5410 5415 5418 5422 5426 5429 5432 5436 5439 5442 5445 5448 5450 5453 5455 5456 5457 5458
5332 5331 5330 5330 5330 5331 5332 5333 5334 5336 5340 5344 5348 5353 5358 5362 5366 5371 5375 5380 5385 5390 5394 5399 5403 5408 5411 5415 5419 5422 5426 5430 5433 5436 5439 5442 5445 5447 5449 5450 5452 5453 5454